Content
SEND FEEDBACK

Daily
Averages
Monthly
Summary
Spain

IBIZA, SPAIN


Home > Europe > Spain
Elevation: 39 feet     Latitude: 38 52N     Longitude: 001 23E

WEATHER
 
SELECT A DAY
Number of Records: 272,806;   Date Range: 7/1/96 - 9/30/14
 
SHARE

PRINT THIS DATA

[ ← Previous Day ]
WEATHER ALMANAC - JANUARY 23, 2013
[ Next Day → ]
[ °C ]   °F
Weather ElementAverageHighLow
Temperature52.1 °F55.4 °F (3:30 pm)48 °F (7:00 am)
Dewpoint33.1 °F35.6 °F (5:30 am)30.2 °F (9:30 am)
Humidity47.5 %58 % (5:30 am)33 % (1:00 pm)
Barometer29.79 in29.89 in (8:00 pm)29.65 in (5:30 am)
Wind Speed23.2 mph31.1 mph (3:30 pm)
Wind Gust44.9 mph (12:30 pm)
Weather ElementAverage
Visibility6.6 mi
Wind DirectionWSW (262.9 °)

Weather ElementTotal
Precipitation---
Heating Degree Days13.3 (Base 65)
Growing Degree Days1.7 (Base 50)
Averaged from 42 records on January 23, 2013
WEATHER CONDITIONS BREAKOUT
WIND DIRECTION BREAKOUT
WEATHER BY HOUR - JANUARY 23, 2013
[ °C ]   °F
Local TimeTemperatureDewpointHumidityBarometerVisibilityWind DirectionWind SpeedGust SpeedPrecipitationEventsConditions
1:00 AM50.0 °F34.0 °F43 %29.70 in12.0 miWSW (250°)21.9 mphPartly Cloudy
1:00 AM51.8 °F33.8 °F50 %29.68 inWSW (250°)24.2 mph38.0 mphClear
4:00 AM50.0 °F33.8 °F54 %29.68 in6.2 miWSW (250°)25.3 mph38.0 mphPartly Cloudy
5:30 AM50.0 °F35.6 °F58 %29.65 in6.2 miWest (260°)19.6 mph32.2 mphPartly Cloudy
6:00 AM50.0 °F33.8 °F54 %29.68 in6.2 miWest (270°)16.1 mph28.8 mphPartly Cloudy
6:30 AM50.0 °F33.8 °F54 %29.68 in6.2 miWest (270°)15.0 mphPartly Cloudy
7:00 AM48.0 °F33.0 °F45 %29.70 in12.0 miWest (270°)18.4 mphScattered Clouds
7:00 AM50.0 °F33.8 °F54 %29.68 in6.2 miWest (270°)19.6 mphPartly Cloudy
7:30 AM48.2 °F33.8 °F58 %29.68 in6.2 miWest (270°)17.3 mph28.8 mphPartly Cloudy
8:00 AM48.2 °F33.8 °F58 %29.71 in6.2 miWest (260°)17.3 mphScattered Clouds
8:30 AM48.2 °F33.8 °F58 %29.71 in6.2 miWest (260°)17.3 mph33.4 mphPartly Cloudy
9:00 AM50.0 °F33.8 °F54 %29.71 in6.2 miWest (270°)16.1 mphPartly Cloudy
9:30 AM50.0 °F30.2 °F47 %29.74 in6.2 miWest (280°)20.7 mphPartly Cloudy
10:00 AM51.8 °F32.0 °F47 %29.74 in5.6 miWest (270°)17.3 mph28.8 mphPartly Cloudy
10:30 AM51.8 °F33.8 °F50 %29.77 in5.6 miWest (270°)23.0 mph34.5 mphPartly Cloudy
11:00 AM51.8 °F33.8 °F50 %29.77 in5.6 miWest (270°)24.2 mph36.8 mphPartly Cloudy
11:30 AM51.8 °F33.8 °F50 %29.80 in5.6 miWest (260°)25.3 mph38.0 mphPartly Cloudy
12:00 PM53.6 °F33.8 °F47 %29.80 in6.2 miWest (260°)25.3 mph38.0 mphPartly Cloudy
12:30 PM51.8 °F33.8 °F50 %29.80 in6.2 miWest (260°)27.6 mph44.9 mphPartly Cloudy
1:00 PM53.0 °F32.0 °F33 %29.81 in12.0 miWest (260°)24.2 mphScattered Clouds
1:00 PM51.8 °F30.2 °F44 %29.80 in6.2 miWest (260°)23.0 mph35.7 mphPartly Cloudy
2:00 PM51.8 °F30.2 °F44 %29.80 in6.2 miWest (260°)24.2 mphPartly Cloudy
2:30 PM53.6 °F32.0 °F44 %29.80 in6.2 miWest (260°)25.3 mph39.1 mphPartly Cloudy
3:00 PM53.6 °F32.0 °F44 %29.80 in6.2 miWest (260°)28.8 mph41.4 mphPartly Cloudy
3:30 PM55.4 °F33.8 °F44 %29.80 in6.2 miWest (260°)31.1 mph44.9 mphPartly Cloudy
4:00 PM55.4 °F33.8 °F44 %29.80 in6.2 miWest (260°)27.6 mph42.6 mphPartly Cloudy
4:30 PM53.6 °F33.8 °F47 %29.80 in6.2 miWest (260°)28.8 mph43.7 mphPartly Cloudy
5:00 PM53.6 °F33.8 °F47 %29.83 in6.2 miWest (260°)28.8 mph42.6 mphPartly Cloudy
5:30 PM53.6 °F33.8 °F47 %29.83 in6.2 miWest (260°)25.3 mph40.3 mphPartly Cloudy
6:00 PM53.6 °F32.0 °F44 %29.83 in6.2 miWest (260°)23.0 mphPartly Cloudy
6:30 PM53.6 °F32.0 °F44 %29.86 in6.2 miWest (260°)20.7 mph34.5 mphPartly Cloudy
7:00 PM53.6 °F32.0 °F44 %29.86 in6.2 miWest (260°)26.5 mph44.9 mphPartly Cloudy
7:00 PM53.0 °F33.0 °F34 %29.87 in9.0 miWest (260°)27.6 mphScattered Clouds
7:30 PM53.6 °F33.8 °F47 %29.86 in6.2 miWest (260°)27.6 mph40.3 mphPartly Cloudy
8:00 PM53.6 °F32.0 °F44 %29.89 in6.2 miWest (260°)24.2 mph39.1 mphPartly Cloudy
8:30 PM53.6 °F32.0 °F44 %29.89 in6.2 miWest (260°)23.0 mph36.8 mphPartly Cloudy
9:00 PM53.6 °F32.0 °F44 %29.86 in6.2 miWest (270°)25.3 mph42.6 mphPartly Cloudy
9:30 PM53.6 °F33.8 °F47 %29.86 in6.2 miWest (260°)23.0 mph40.3 mphPartly Cloudy
10:00 PM53.6 °F32.0 °F44 %29.86 in6.2 miWest (270°)23.0 mph38.0 mphPartly Cloudy
10:30 PM53.6 °F32.0 °F44 %29.86 in6.2 miWest (270°)23.0 mph35.7 mphPartly Cloudy
11:00 PM53.6 °F33.8 °F47 %29.89 in6.2 miWest (260°)21.9 mph34.5 mphPartly Cloudy
11:30 PM53.6 °F35.6 °F51 %29.86 in6.2 miWest (270°)26.5 mph40.3 mphPartly Cloudy
Hourly data recorded from LEIB, located miles away from Ibiza, Spain







STORIES FROM OUR PARTNERS